"TOA5","AWS1","CR1000","7964","CR1000.Std.14","CPU:AWS1_114.CR1","64363","TBL110"
"TIMESTAMP","RECORD","Wind_spd_WVc(1)","Wind_spd_WVc(2)","Air_Temp_Avg","Humidity_Avg","SW_upper_Wm2_Avg","Rain_Tot","Press_Avg","Issui_Tot","Depth_cm","SR50A_Raw","Quality","Ground_Temp_Avg(1)","Ground_Temp_Avg(2)","SW_lower_Wm2_Avg","Albedo_Avg","SWC_per(1)","SWC_per(2)","Period(1)","Period(2)"
"TS","RN","","","","","","","","","","","","","","","","","","",""
"","","WVc","WVc","Avg","Avg","Avg","Tot","Avg","Tot","Smp","Smp","Smp","Avg","Avg","Avg","Avg","Smp","Smp","Smp","Smp"
"2017-06-01 00:00:00",290509,0.067,36.01,12.61,100,0,0,858.3309,0,-4.368,3.152,232,16.09,14.37,0.8223304,0,48.27,56.23,32.86,34.8
"2017-06-01 00:10:00",290510,0.037,33.24,12.59,100,0,0,858.1666,0,-3.857,3.147,257,16.06,14.37,0.8981212,0,48.27,56.23,32.86,34.8
"2017-06-01 00:20:00",290511,0.032,59.16,12.51,100,0,0,858.0254,0,-2.761,3.137,318,16.06,14.38,0.8488572,0,48.27,56.18,32.86,34.79
"2017-06-01 00:30:00",290512,0.156,144.1,12.43,100,0,0,857.8232,0,-2.688,3.137,323,16.07,14.39,0.6859069,0,48.27,56.23,32.86,34.8
"2017-06-01 00:40:00",290513,0.33,170.4,12.18,100,0,0,857.8022,0,-2.747,3.139,311,16,14.4,0.6290638,0,48.27,56.18,32.86,34.79
"2017-06-01 00:50:00",290514,0.137,71.31,12.23,100,0,0,857.7074,0,-2.741,3.138,320,15.97,14.42,0.9094898,0,48.27,56.18,32.86,34.79
"2017-06-01 01:00:00",290515,0.322,122.1,12.21,100,0,0,857.3746,0,-3.457,3.145,284,15.98,14.42,0.9094898,0,48.27,56.18,32.86,34.79
"2017-06-01 01:10:00",290516,0.588,143.5,12.05,100,0,0,857.0713,0,-3.695,3.149,269,15.88,14.43,0.784435,0,48.27,56.18,32.86,34.79
"2017-06-01 01:20:00",290517,0.245,332.5,11.87,100,0,0,857.0355,0,-3.135,3.144,323,15.89,14.41,0.6214847,0,48.27,56.18,32.86,34.79
"2017-06-01 01:30:00",290518,0.116,356.6,11.83,100,0,0,857.0776,0,-3.621,3.149,298,15.92,14.4,0.735171,0,48.27,56.18,32.86,34.79
"2017-06-01 01:40:00",290519,0.064,74.53,11.87,100,0,0,857.2019,0,-3.315,3.146,302,15.88,14.4,0.8564363,0,48.27,56.18,32.86,34.79
"2017-06-01 01:50:00",290520,0.004,72.06,11.88,100,0,0,857.0798,0,-3.442,3.147,282,15.78,14.42,0.8488572,0,48.27,56.18,32.86,34.79
"2017-06-01 02:00:00",290521,0.148,112.1,11.86,100,0,0,856.8165,0,-3.208,3.144,242,15.8,14.42,0.7692768,0,48.27,56.12,32.86,34.78
"2017-06-01 02:10:00",290522,0.005,157.3,11.85,100,0,0,856.9281,0,-2.24,3.135,245,15.81,14.43,0.8564363,0,48.27,56.12,32.86,34.78
"2017-06-01 02:20:00",290523,0.041,53.62,11.77,100,0,0,856.7512,0,-2.221,3.136,240,15.72,14.4,0.9094898,0,48.27,56.12,32.86,34.78
"2017-06-01 02:30:00",290524,0,0,11.71,100,0,0,856.5469,0,-1.608,3.13,286,15.72,14.39,0.8299094,0,48.27,56.12,32.86,34.78
"2017-06-01 02:40:00",290525,0.208,122.8,11.62,100,0,0,856.551,0,-1.685,3.131,289,15.75,14.39,0.5191671,0,48.27,56.12,32.86,34.78
"2017-06-01 02:50:00",290526,0.577,115.3,11.44,100,0,0,856.3173,0,-3.017,3.145,278,15.65,14.39,0.8526467,0,48.21,56.12,32.85,34.78
"2017-06-01 03:00:00",290527,0.116,164.3,11.73,94.4,0.1061177,0,856.2858,0,-4.994,3.161,229,15.63,14.39,1.360445,1.012,48.27,56.12,32.86,34.78
"2017-06-01 03:10:00",290528,0.108,107.8,11.94,93.5,0.06288454,0,856.2858,0,-4.54,3.158,254,15.66,14.39,1.201285,1.543,48.27,56.12,32.86,34.78
"2017-06-01 03:20:00",290529,0.757,79.42,11.65,99.8,0,0,856.2709,0,-4.058,3.154,209,15.64,14.4,0.9094898,0,48.27,56.12,32.86,34.78
"2017-06-01 03:30:00",290530,0.778,60.26,11.65,100,0,0,856.0645,0,-3.932,3.153,217,15.52,14.4,0.9094898,0,48.27,56.12,32.86,34.78
"2017-06-01 03:40:00",290531,0.116,199.4,11.75,100,0,0.5,856.0413,0,-2.96,3.143,209,15.56,14.41,0.8488572,0,48.27,56.12,32.86,34.78
"2017-06-01 03:50:00",290532,0.049,278.7,11.58,100,0,0,856.2373,0,-3.295,3.147,217,15.58,14.41,0.7768559,0,48.27,56.12,32.86,34.78
"2017-06-01 04:00:00",290533,0.022,26.42,11.5,100,0,0,856.1699,0,-2.278,3.138,218,15.53,14.41,0.8223304,0,48.21,56.06,32.85,34.76
"2017-06-01 04:10:00",290534,0,0,11.39,100,0,0,856.1025,0,-3.862,3.154,194,15.51,14.42,0.4812717,0,48.27,56.06,32.86,34.76
"2017-06-01 04:20:00",290535,0.018,137.3,11.25,100,0,0.5,856.2436,0,-1.647,3.133,208,15.46,14.41,0.4547449,0,48.27,56.12,32.86,34.78
"2017-06-01 04:30:00",290536,0,0,11.31,100,0,0.5,856.1656,0,-0.645,3.122,227,15.49,14.41,0.4547449,0,48.27,56.06,32.86,34.76
"2017-06-01 04:40:00",290537,0.596,102.1,11.1,100,0.06288454,0,855.9255,0,-0.456,3.123,216,15.42,14.42,0.6214847,0.257,48.27,56.06,32.86,34.76
"2017-06-01 04:50:00",290538,0.973,90.1,10.89,100,2.448566,0,855.9886,0,-1.038,3.128,221,15.37,14.45,1.428657,0.736,48.27,56.06,32.86,34.76
"2017-06-01 05:00:00",290539,1.123,61.25,11.02,100,4.268288,0.5,856.0371,0,-1.165,3.129,216,15.41,14.45,1.424867,0.335,48.27,56.06,32.86,34.76
"2017-06-01 05:10:00",290540,0.202,278.6,11.18,100,6.182336,0,856.2668,0,-0.878,3.125,219,15.4,14.45,1.606765,0.262,48.21,56.06,32.85,34.76
"2017-06-01 05:20:00",290541,0.216,346.5,11.2,100,9.85715,0,856.2057,0,-1.262,3.129,220,15.31,14.45,1.883402,0.192,48.21,56.06,32.85,34.76
"2017-06-01 05:30:00",290542,0.005,54.44,11.23,100,14.68747,0,856.1088,0,-0.116,3.118,239,15.28,14.45,2.482149,0.171,48.27,56.06,32.86,34.76
"2017-06-01 05:40:00",290543,0.036,46.85,11.21,100,12.55725,0,856.1552,0,1.72,3.1,267,15.31,14.45,2.080458,0.168,48.27,56.06,32.86,34.76
"2017-06-01 05:50:00",290544,0.011,45.47,11.37,100,9.416959,0,856.2858,0,-0.134,3.117,240,15.27,14.45,1.637082,0.175,48.27,56.06,32.86,34.76
"2017-06-01 06:00:00",290545,0,0,11.38,100,20.03265,0.5,856.2858,0,-2.608,3.141,200,15.18,14.45,2.97479,0.149,48.27,56.12,32.86,34.78
"2017-06-01 06:10:00",290546,0,0,11.36,100,29.25703,0,856.2541,0,-1.821,3.134,203,15.23,14.45,4.179864,0.143,48.27,56.06,32.86,34.76
"2017-06-01 06:20:00",290547,0,0,11.32,100,69.24767,0,856.0287,0,0.555,3.11,252,15.23,14.43,9.542065,0.138,48.27,56.06,32.86,34.76
"2017-06-01 06:30:00",290548,0,0,11.37,100,45.54805,0,855.9529,0,3.893,3.078,321,15.23,14.4,6.127687,0.135,48.27,56.06,32.86,34.76
"2017-06-01 06:40:00",290549,0,0,11.43,100,56.82011,0,855.9465,0,4.23,3.074,284,15.17,14.36,7.783717,0.137,48.32,56,32.88,34.75
"2017-06-01 06:50:00",290550,0,0,11.58,100,46.9944,0,856.033,0,-35.05,3.458,235,15.16,14.34,6.430851,0.137,48.32,56.06,32.88,34.76
"2017-06-01 07:00:00",290551,0,0,11.56,100,37.59709,0,856.0371,0,2.501,3.09,294,15.14,14.32,4.994615,0.133,48.27,56.06,32.86,34.76
"2017-06-01 07:10:00",290552,0.13,95.7,11.58,100,63.76885,0.5,856.033,0,-0.791,3.122,241,15.14,14.32,8.492361,0.133,48.27,56,32.86,34.75
"2017-06-01 07:20:00",290553,0.091,122.1,11.51,100,105.5202,0,856.033,0,1.499,3.101,348,15.14,14.32,13.96446,0.132,48.32,56,32.88,34.75
"2017-06-01 07:30:00",290554,0,0,11.36,100,80.82235,0,856.033,0,-3.576,3.15,187,15.09,14.33,10.63724,0.132,48.32,56,32.88,34.75
"2017-06-01 07:40:00",290555,0.171,185.1,11.42,100,70.28918,0,855.8918,0,-2.764,3.143,200,15.01,14.35,9.398061,0.134,48.27,56.06,32.86,34.76
"2017-06-01 07:50:00",290556,0,0,11.37,100,88.22307,0,855.7949,0,-2.657,3.141,199,15.01,14.36,11.67179,0.132,48.32,56.06,32.88,34.76
"2017-06-01 08:00:00",290557,0,0,11.62,100,87.90472,0,855.7823,0,-2.294,3.136,200,15.02,14.36,11.42926,0.13,48.32,56.06,32.88,34.76
"2017-06-01 08:10:00",290558,0.052,40.79,11.81,100,84.89019,0,855.7802,0,-2.065,3.134,208,15.02,14.36,11.09957,0.131,48.32,56.06,32.88,34.76
"2017-06-01 08:20:00",290559,0,0,11.65,100,72.99322,0,855.7802,0,-1.739,3.132,204,15.04,14.36,9.204795,0.126,48.32,56.06,32.88,34.76
"2017-06-01 08:30:00",290560,0.126,173.2,11.48,99.7,107.4068,0,855.7781,0,-1.69,3.132,224,15.05,14.36,14.15394,0.132,48.32,56.06,32.88,34.76
"2017-06-01 08:40:00",290561,0.049,228.4,11.52,99.8,128.1351,0,855.7465,0,-2.935,3.143,201,15.05,14.36,16.71946,0.13,48.32,56.06,32.88,34.76
"2017-06-01 08:50:00",290562,0.01,299.3,11.64,100,67.04277,0,855.639,0,-4.112,3.155,192,15.05,14.36,7.992142,0.119,48.38,56.06,32.89,34.76
"2017-06-01 09:00:00",290563,0.049,112.2,11.62,100,66.3707,0,855.5527,0,-1,3.125,235,15.06,14.34,7.995932,0.12,48.32,56.06,32.88,34.76
"2017-06-01 09:10:00",290564,0.32,128.8,11.38,100,92.37345,0,855.5295,0,-0.344,3.12,257,15.03,14.24,11.54673,0.124,48.38,56.06,32.89,34.76
"2017-06-01 09:20:00",290565,0.127,17.22,11.34,100,78.54671,0,855.5422,0,0.357,3.111,258,15.01,14.21,10.23934,0.131,48.38,56,32.89,34.75
"2017-06-01 09:30:00",290566,0.412,117.1,11.48,100,120.8523,0,855.3864,0,1.852,3.098,264,14.98,14.21,16.27987,0.135,48.38,56.06,32.89,34.76
"2017-06-01 09:40:00",290567,0.235,141.1,11.38,100,135.3708,0,855.3715,0,1.63,3.099,273,14.96,14.22,18.14432,0.134,48.32,56,32.88,34.75
"2017-06-01 09:50:00",290568,0.212,133,11.5,100,110.5274,0,855.2894,0,2.423,3.091,242,14.95,14.22,14.88911,0.135,48.38,56,32.89,34.75
"2017-06-01 10:00:00",290569,0.227,107.6,11.55,100,128.0015,0,855.2747,0,3.137,3.084,249,14.94,14.24,17.70095,0.138,48.38,56,32.89,34.75
"2017-06-01 10:10:00",290570,0.342,99.4,11.8,100,271.1227,0,855.182,0,2.724,3.085,273,14.95,14.23,38.48658,0.142,48.38,56,32.89,34.75
"2017-06-01 10:20:00",290571,0.309,173.1,12.56,98.9,397.9962,0,855.0345,0,-3.053,3.137,231,15.02,14.19,55.57741,0.139,48.43,56,32.9,34.75
"2017-06-01 10:30:00",290572,0.067,137.8,12.98,93.3,288.8601,0,854.8514,0,4.111,3.067,301,15,14.19,40.37756,0.14,48.38,56,32.89,34.75
"2017-06-01 10:40:00",290573,0.115,51.37,13.02,92.8,203.6751,0,854.7662,0,3.442,3.074,277,14.99,14.19,28.46324,0.14,48.43,56,32.9,34.75
"2017-06-01 10:50:00",290574,0.064,99.6,12.86,99.9,173.6124,0,854.7521,0,3.804,3.07,280,15.01,14.19,23.912,0.138,48.43,56,32.9,34.75
"2017-06-01 11:00:00",290575,0.328,121.6,12.91,95,329.6328,0,854.7242,0,3.27,3.075,257,14.99,14.19,48.64195,0.147,48.43,56,32.9,34.75
"2017-06-01 11:10:00",290576,0.216,151.5,13.37,87.7,502.6429,0,854.689,0,2.518,3.077,368,14.98,14.19,75.09222,0.149,48.43,56,32.9,34.75
"2017-06-01 11:20:00",290577,0.325,132.7,14.56,84.1,903.2051,0,854.5543,0,318,0,0,15,14.18,137.2225,0.15,48.38,56,32.89,34.75
"2017-06-01 11:30:00",290578,0.229,129.6,14.85,81.5,542.4092,0,854.3582,0,5.001,3.047,264,15.01,14.2,82.21879,0.148,48.43,56,32.9,34.75
"2017-06-01 11:40:00",290579,0.353,333.1,14.78,83,280.8326,0,854.1782,0,3.154,3.07,275,15,14.13,38.64494,0.136,48.43,56,32.9,34.75
"2017-06-01 11:50:00",290580,0.179,306.6,13.8,95,109.4145,0,854.179,0,0.909,3.095,372,15.03,14.09,14.25208,0.129,48.43,56,32.9,34.75
"2017-06-01 12:00:00",290581,0.164,300.8,13.35,98.3,194.6225,0,854.1765,0,2.141,3.083,320,15.04,14.13,31.03748,0.15,48.43,56,32.9,34.75
"2017-06-01 12:10:00",290582,0.205,315,13.76,93.5,269.7352,0,854.1786,0,-3.512,3.137,237,15.02,14.12,41.06862,0.153,48.48,56,32.92,34.75
"2017-06-01 12:20:00",290583,0.303,309.3,14.37,83.7,614.2678,0,854.147,0,-35.31,3.441,293,15.04,14.11,99.28261,0.157,48.48,56,32.92,34.75
"2017-06-01 12:30:00",290584,0.305,162.6,14.63,79.53,227.9936,0,853.9427,0,4.101,3.059,356,15.03,14.1,34.13984,0.15,48.43,56,32.9,34.75
"2017-06-01 12:40:00",290585,0.079,253.4,14.55,84.1,261.4628,0,854.1028,0,318,0,0,15.11,14.11,40.50071,0.155,48.48,56,32.92,34.75
"2017-06-01 12:50:00",290586,0.278,10.49,14.82,79.17,326.5527,0,853.8776,0,318,0,0,15.13,14.1,51.58499,0.156,48.48,56,32.92,34.75
"2017-06-01 13:00:00",290587,0.27,307.6,14.63,77.82,337.3751,0,853.688,0,318,0,0,15.18,14.09,57.08591,0.159,48.43,56,32.9,34.75
"2017-06-01 13:10:00",290588,0.487,45.68,15.34,73.98,579.1526,0,853.6711,0,-1.747,3.112,258,15.17,14.09,93.47233,0.154,48.43,56,32.9,34.75
"2017-06-01 13:20:00",290589,0.368,224.8,16.57,70.74,1002.448,0,853.6711,0,-5.029,3.135,200,15.21,14.07,166.9718,0.162,48.43,56,32.9,34.75
"2017-06-01 13:30:00",290590,0.586,257.4,15.93,68.11,353.0909,0,853.5491,0,-2.349,3.116,226,15.19,14.05,50.31184,0.136,48.48,56,32.92,34.75
"2017-06-01 13:40:00",290591,0.47,284.1,15.51,69.48,622.8206,0,853.2354,0,-3.77,3.127,209,15.24,14.02,103.3852,0.152,48.43,56,32.9,34.75
"2017-06-01 13:50:00",290592,0.297,253.3,16.95,64.03,1013.511,0,853.1912,0,-2.637,3.109,234,15.32,14.04,172.9261,0.17,48.43,56,32.9,34.75
"2017-06-01 14:00:00",290593,0.453,245,16.94,63.18,719.9363,0,853.3996,0,-3.724,3.12,202,15.32,14.06,118.7996,0.154,48.48,56,32.92,34.75
"2017-06-01 14:10:00",290594,0.62,250.8,17.16,63,532.7101,0,853.3828,0,-1.808,3.107,280,15.33,14.04,82.98166,0.137,48.48,56,32.92,34.75
"2017-06-01 14:20:00",290595,0.331,239.8,16.34,65.11,697.2465,0,853.1638,0,-2.143,3.107,231,15.37,13.99,116.072,0.157,48.48,56,32.92,34.75
"2017-06-01 14:30:00",290596,0.4,291.3,17.53,61.66,941.2067,0,853.1321,0,-1.575,3.095,232,15.43,14.02,155.485,0.165,48.48,56.18,32.92,34.79
"2017-06-01 14:40:00",290597,0.762,276.3,18.02,60.17,915.9278,0,852.9216,0,-1.948,3.1,231,15.5,13.98,142.5254,0.155,48.43,56,32.9,34.75
"2017-06-01 14:50:00",290598,0.539,269,17.79,59.2,840.9517,0,852.9131,0,-0.09,3.082,374,15.5,13.97,115.4394,0.137,48.43,56,32.9,34.75
"2017-06-01 15:00:00",290599,0.403,284,17.94,57.02,696.3586,0,852.9131,0,-0.392,3.084,237,15.6,13.97,78.43954,0.11,48.43,56,32.9,34.75
"2017-06-01 15:10:00",290600,0.834,265.6,17.27,58.7,482.2428,0,852.8858,0,-0.891,3.096,251,15.59,13.96,43.88311,0.089,48.43,56,32.9,34.75
"2017-06-01 15:20:00",290601,0.803,279.9,16.89,58.83,507.6278,0,852.9174,0,-4.555,3.129,194,15.68,13.97,47.99715,0.099,48.43,55.95,32.9,34.74
"2017-06-01 15:30:00",290602,0.35,194.4,17.02,61.88,214.5283,0,852.9258,0,-2.232,3.106,240,15.76,13.97,37.80297,0.178,48.48,56,32.92,34.75
"2017-06-01 15:40:00",290603,0.347,313.5,17.48,58.65,181.3288,0,853.1553,0,-1.495,3.097,315,15.83,14.02,37.00743,0.204,48.43,56,32.9,34.75
"2017-06-01 15:50:00",290604,0.651,233.9,17.25,54.55,145.8037,0,853.1659,0,-2.859,3.113,207,15.91,14.03,26.86637,0.184,48.48,56,32.92,34.75
"2017-06-01 16:00:00",290605,0.475,220.9,16.76,57.49,130.6749,0,853.1595,0,-3.088,3.118,203,15.98,14.05,20.69555,0.158,48.43,56,32.9,34.75
"2017-06-01 16:10:00",290606,0.533,186.8,16.87,54.29,125.8261,0,853.0185,0,-2.236,3.109,264,16,14.03,20.95374,0.167,48.48,56,32.92,34.75
"2017-06-01 16:20:00",290607,0.598,206.2,16.81,55.41,124.4594,0,853.0059,0,-2.876,3.114,221,16.04,14.03,18.91566,0.153,48.43,56,32.9,34.75
"2017-06-01 16:30:00",290608,0.45,293.8,17.09,53.12,119.8746,0,852.9131,0,-2.96,3.112,207,16.13,14.07,18.35187,0.154,48.43,55.95,32.9,34.74
"2017-06-01 16:40:00",290609,0.226,187.4,17.11,54.65,121.513,0,852.9174,0,-3.393,3.118,201,16.15,14.08,18.31456,0.151,48.43,55.95,32.9,34.74
"2017-06-01 16:50:00",290610,0.362,235.5,16.81,58.37,113.0241,0,852.7663,0,1.631,3.072,257,16.23,14.1,16.29554,0.143,48.38,56,32.89,34.75
"2017-06-01 17:00:00",290611,0.288,235.1,16.45,58.74,131.7074,0,852.8559,0,-3.061,3.118,222,16.27,14.1,20.08472,0.152,48.43,55.95,32.9,34.74
"2017-06-01 17:10:00",290612,0.139,202.1,16.57,61.47,122.6715,0,852.8272,0,0.159,3.086,309,16.33,14.1,17.80033,0.144,48.38,55.95,32.89,34.74
"2017-06-01 17:20:00",290613,0.243,219.9,16.55,60.65,87.01127,0,852.7511,0,-2.653,3.114,213,16.32,14.11,11.52984,0.132,48.38,55.95,32.89,34.74
"2017-06-01 17:30:00",290614,0.257,183,16.22,62.64,93.98734,0,852.7614,0,-2.155,3.111,224,16.34,14.11,13.04934,0.138,48.38,55.95,32.89,34.74
"2017-06-01 17:40:00",290615,0.067,211.2,16.16,64.92,77.58198,0,852.6852,0,3.651,3.055,316,16.43,14.12,10.33279,0.133,48.43,55.95,32.9,34.74
"2017-06-01 17:50:00",290616,0.064,193.9,15.96,64.23,70.17748,0,852.6566,0,3.636,3.056,248,16.48,14.14,9.147223,0.13,48.38,55.95,32.89,34.74
"2017-06-01 18:00:00",290617,0.181,198.1,15.86,65.23,72.23074,0,852.6721,0,4.196,3.051,246,16.5,14.14,10.04932,0.139,48.38,55.95,32.89,34.74
"2017-06-01 18:10:00",290618,0.062,208.1,15.76,66,64.36423,0,852.5129,0,4.697,3.047,321,16.51,14.14,9.102191,0.141,48.43,55.95,32.9,34.74
"2017-06-01 18:20:00",290619,0.06,150.1,15.81,65.13,61.09944,0,852.453,0,-1.412,3.105,230,16.52,14.15,9.757949,0.16,48.38,55.95,32.89,34.74
"2017-06-01 18:30:00",290620,0.051,221.2,15.72,67.5,37.37685,0,852.4082,0,-1.838,3.111,230,16.5,14.2,5.797976,0.155,48.38,55.95,32.89,34.74
"2017-06-01 18:40:00",290621,0.116,80.4,15.51,68.62,38.65823,0,852.1917,0,4.528,3.05,292,16.46,14.26,6.540742,0.169,48.38,55.95,32.89,34.74
"2017-06-01 18:50:00",290622,0.125,167.1,15.22,72.21,20.182,0,852.1907,0,4.4,3.054,497,16.46,14.32,2.933104,0.141,48.38,55.95,32.89,34.74
"2017-06-01 19:00:00",290623,0.236,110.4,14.66,77.11,9.896454,0,852.2039,0,-35.12,3.442,292,16.42,14.32,1.424867,0.131,48.38,55.95,32.89,34.74
"2017-06-01 19:10:00",290624,0.203,113.4,14.21,81.6,0.04323312,0,852.2117,0,-34.96,3.442,253,16.42,14.32,0,0,48.43,55.95,32.9,34.74
"2017-06-01 19:20:00",290625,0.135,124.7,13.93,84.1,0,0,852.2281,0,-1.37,3.117,272,16.39,14.32,0,0,48.43,55.95,32.9,34.74
"2017-06-01 19:30:00",290626,0.154,134.7,13.5,90.4,0,0,852.2323,0,-3.14,3.135,218,16.4,14.32,0,0,48.38,55.95,32.89,34.74
"2017-06-01 19:40:00",290627,0.015,136.2,13.44,92.3,0,0,852.3286,0,-3.448,3.138,224,16.4,14.32,0,0,48.38,55.95,32.89,34.74
"2017-06-01 19:50:00",290628,0.309,125.9,13.54,90.5,0,0,852.3055,0,4.038,3.064,429,16.34,14.32,0.231162,0,48.38,55.95,32.89,34.74
"2017-06-01 20:00:00",290629,0.302,129.8,13.37,93.1,0,0,852.3393,0,4.787,3.059,348,16.28,14.32,0.06063266,0,48.43,55.95,32.9,34.74
"2017-06-01 20:10:00",290630,0.146,123.2,13.19,96.5,0,0,852.2751,0,4.795,3.058,325,16.32,14.3,0.1212653,0,48.38,55.95,32.89,34.74
"2017-06-01 20:20:00",290631,0.237,38.7,13.7,83.3,0,0,852.4818,0,4.487,3.058,303,16.32,14.29,0.7995932,0,48.38,55.95,32.89,34.74
"2017-06-01 20:30:00",290632,0.51,103.1,13.73,82.2,0,0,852.2796,0,5.882,3.046,368,16.2,14.33,0.4357972,0,48.38,55.95,32.89,34.74
"2017-06-01 20:40:00",290633,0.419,132.6,13.68,85,0,0,852.2354,0,0.56,3.097,314,16.22,14.41,0.2955842,0,48.38,55.95,32.89,34.74
"2017-06-01 20:50:00",290634,0.587,90.6,13.82,85.8,0,0,852.1933,0,-3.335,3.135,219,16.26,14.42,0.3751645,0,48.38,55.95,32.89,34.74
"2017-06-01 21:00:00",290635,0.874,114.6,13.82,88,0,0,852.2438,0,-2.334,3.125,325,16.2,14.41,0.2993737,0,48.38,55.95,32.89,34.74
"2017-06-01 21:10:00",290636,0.733,123.4,13.95,86.6,0,0,852.2418,0,-2.075,3.122,221,16.17,14.41,0.2425306,0,48.38,55.95,32.89,34.74
"2017-06-01 21:20:00",290637,0.523,82.2,13.96,85.6,0,0,852.2418,0,-2.998,3.131,208,16.15,14.41,0.04168495,0,48.38,55.95,32.89,34.74
"2017-06-01 21:30:00",290638,0.525,7.37,13.98,84.5,0,0,852.3154,0,-2.588,3.127,206,16.09,14.4,0.05684311,0,48.38,55.95,32.89,34.74
"2017-06-01 21:40:00",290639,0.489,148.5,13.97,83.7,0,0,852.2543,0,-2.226,3.123,220,16.04,14.38,0.05684311,0,48.43,55.95,32.9,34.74
"2017-06-01 21:50:00",290640,0.506,111.4,14.09,81.1,0,0,852.2017,0,-1.478,3.115,218,16.06,14.37,0.4054809,0,48.38,55.95,32.89,34.74
"2017-06-01 22:00:00",290641,0.645,146.6,14.06,81.1,0,0,852.0458,0,-2.66,3.127,218,16.05,14.37,0,0,48.38,55.95,32.89,34.74
"2017-06-01 22:10:00",290642,0.602,125.1,14.02,81.7,0,0,851.9911,0,-3.535,3.136,201,16.01,14.39,0,0,48.43,55.89,32.9,34.72
"2017-06-01 22:20:00",290643,0.584,69.58,13.94,83.2,0,0,851.949,0,-2.413,3.126,211,15.97,14.43,0,0,48.38,55.95,32.89,34.74
"2017-06-01 22:30:00",290644,0.315,48.79,13.8,84.9,0,0,851.7109,0,-2.34,3.126,213,15.96,14.46,0,0,48.38,55.95,32.89,34.74
"2017-06-01 22:40:00",290645,0.432,14.79,13.65,86.6,0,0,851.5046,0,-2.346,3.127,215,15.85,14.5,0,0,48.38,55.95,32.89,34.74
"2017-06-01 22:50:00",290646,0.441,83.7,13.65,86.5,0,0,851.2728,0,-0.11,3.104,247,15.87,14.52,0.1023176,0,48.38,55.95,32.89,34.74
"2017-06-01 23:00:00",290647,0.215,19.32,13.77,84.9,0,0,851.2371,0,-2.213,3.125,224,15.9,14.53,0.3410587,0,48.38,55.95,32.89,34.74
"2017-06-01 23:10:00",290648,0.357,15.85,13.41,96,0,0,851.3719,0,-4.379,3.149,212,15.87,14.54,0.4054809,0,48.43,55.89,32.9,34.72
"2017-06-01 23:20:00",290649,0.118,356.3,12.95,100,0,1,851.2202,0,-4.466,3.152,199,15.77,14.54,0.3562168,0,48.43,55.89,32.9,34.72
"2017-06-01 23:30:00",290650,0.23,234.5,12.67,100,0,1.5,851.0897,0,-1.89,3.128,239,15.8,14.54,0.322111,0,48.43,55.95,32.9,34.74
"2017-06-01 23:40:00",290651,0.365,35.5,12.37,100,0,3.5,851.1907,0,-3.437,3.146,213,15.77,14.53,0.1023176,0,48.75,55.89,32.99,34.72
"2017-06-01 23:50:00",290652,0.123,50.6,11.74,100,0,1,851.0412,0,-2.22,3.136,250,15.74,14.51,0.1932666,0,49.19,55.89,33.09,34.72
